FW2979 Weather Reports


time (UTC)temp
C
wind
direction
speed
KPH
gust
KPH
rain 1hr
cm
rain 24hr
cm
rain mn
cm
humidity
%
barometer
mb
20260510155959 6 319 17.7 32.2 0.00 0.00 0.00 74 812.1
20260510155848 6 310 20.9 29.0 0.00 0.00 0.00 74 812.1
20260510155738 6 311 24.1 33.8 0.00 0.00 0.00 73 812.1
20260510155629 6 329 25.7 37.0 0.00 0.00 0.00 71 811.8
20260510155522 6 317 24.1 40.2 0.00 0.00 0.00 71 811.8
20260510155408 6 320 20.9 43.5 0.00 0.00 0.00 71 811.9
20260510155148 7 358 6.4 12.9 0.00 0.00 0.00 70 812.2
20260510155045 7 328 12.9 27.4 0.00 0.00 0.00 71 812.1
20260510154928 7 331 24.1 37.0 0.00 0.00 0.00 72 811.9
20260510154708 6 341 12.9 19.3 0.00 0.00 0.00 73 812.1
20260510154558 6 320 14.5 22.5 0.00 0.00 0.00 73 812.1
20260510154451 6 338 12.9 22.5 0.00 0.00 0.00 72 812.2
20260510154338 6 312 16.1 22.5 0.00 0.00 0.00 72 812.1
20260510154229 6 303 16.1 30.6 0.00 0.00 0.00 72 812.2
20260510154008 6 306 19.3 24.1 0.00 0.00 0.00 72 812.1
20260510153748 6 303 19.3 25.7 0.00 0.00 0.00 70 812.1
20260510153639 6 316 24.1 33.8 0.00 0.00 0.00 70 812.1
20260510153528 6 315 22.5 30.6 0.00 0.00 0.00 70 812.2
20260510153418 6 332 14.5 32.2 0.00 0.00 0.00 69 812.1
20260510153308 6 308 24.1 37.0 0.00 0.00 0.00 69 811.9
20260510153158 6 317 27.4 33.8 0.00 0.00 0.00 69 811.8
20260510153054 6 325 14.5 24.1 0.00 0.00 0.00 70 812.2
20260510152945 6 307 19.3 30.6 0.00 0.00 0.00 69 812.1
20260510152829 7 305 16.1 24.1 0.00 0.00 0.00 69 812.2
20260510152718 7 310 17.7 24.1 0.00 0.00 0.00 67 812.2
20260510152608 7 303 16.1 22.5 0.00 0.00 0.00 66 812.1
20260510152500 7 317 22.5 30.6 0.00 0.00 0.00 66 812.1
20260510152349 7 309 24.1 37.0 0.00 0.00 0.00 67 812.1
20260510152238 7 315 16.1 29.0 0.00 0.00 0.00 67 812.1
20260510152018 7 303 12.9 17.7 0.00 0.00 0.00 67 812.1
20260510151908 7 321 16.1 24.1 0.00 0.00 0.00 67 812.1
20260510151759 7 319 14.5 22.5 0.00 0.00 0.00 68 812.1
20260510151649 7 323 22.5 35.4 0.00 0.00 0.00 68 812.1
20260510151539 7 309 19.3 30.6 0.00 0.00 0.00 68 811.8
20260510151430 7 317 22.5 30.6 0.00 0.00 0.00 68 811.9
20260510151318 7 311 24.1 38.6 0.00 0.00 0.00 69 811.8
20260510151058 7 303 25.7 35.4 0.00 0.00 0.00 66 812.1
20260510150838 7 313 30.6 45.1 0.00 0.00 0.00 68 811.8
20260510150732 7 306 27.4 38.6 0.00 0.00 0.00 67 811.8
20260510150618 7 316 20.9 29.0 0.00 0.00 0.00 66 812.1
20260510150403 7 309 24.1 33.8 0.00 0.00 0.00 70 812.1
20260510150249 7 306 17.7 37.0 0.00 0.00 0.00 70 812.1
20260510145808 7 304 22.5 35.4 0.00 0.00 0.00 73 811.8
20260510145438 7 305 25.7 37.0 0.00 0.00 0.00 72 812.1
20260510145329 7 311 24.1 33.8 0.00 0.00 0.00 71 811.8
20260510145219 7 311 30.6 43.5 0.00 0.00 0.00 71 811.8
20260510145108 7 310 27.4 33.8 0.00 0.00 0.00 70 811.8
20260510144958 7 312 27.4 35.4 0.00 0.00 0.00 69 812.1
20260510144848 7 313 25.7 38.6 0.00 0.00 0.00 70 812.1
20260510144738 7 294 24.1 38.6 0.00 0.00 0.00 72 812.1
20260510144629 7 309 19.3 30.6 0.00 0.00 0.00 72 812.1
20260510144518 7 308 22.5 32.2 0.00 0.00 0.00 72 812.1
20260510144258 7 312 19.3 27.4 0.00 0.00 0.00 72 812.1
20260510144149 7 318 19.3 33.8 0.00 0.00 0.00 70 812.1
20260510144038 7 309 20.9 38.6 0.00 0.00 0.00 69 812.1
20260510143928 7 310 27.4 38.6 0.00 0.00 0.00 68 812.1
20260510143708 7 301 25.7 38.6 0.00 0.00 0.00 68 812.2
20260510143558 7 313 27.4 37.0 0.00 0.00 0.00 68 812.1
20260510143448 7 302 20.9 37.0 0.00 0.00 0.00 67 812.2
20260510143338 7 313 20.9 37.0 0.00 0.00 0.00 69 812.1
20260510143228 7 309 17.7 30.6 0.00 0.00 0.00 69 812.2
20260510143118 7 298 16.1 29.0 0.00 0.00 0.00 68 812.1
20260510143008 7 294 12.9 32.2 0.00 0.00 0.00 68 812.2
20260510142858 7 323 19.3 32.2 0.00 0.00 0.00 68 812.2
20260510142748 7 297 17.7 24.1 0.00 0.00 0.00 69 812.2
20260510142638 7 302 22.5 32.2 0.00 0.00 0.00 67 812.2
20260510142422 7 308 16.1 30.6 0.00 0.00 0.00 70 812.2
20260510142309 7 326 11.3 20.9 0.00 0.00 0.00 69 812.2
20260510142158 7 326 11.3 19.3 0.00 0.00 0.00 70 812.2
20260510142048 7 8 9.7 16.1 0.00 0.00 0.00 65 812.2
20260510141938 7 351 12.9 19.3 0.00 0.00 0.00 65 812.2
20260510141828 7 336 9.7 20.9 0.00 0.00 0.00 63 812.2
20260510141718 7 312 20.9 30.6 0.00 0.00 0.00 60 812.1
20260510141458 7 313 27.4 38.6 0.00 0.00 0.00 64 812.1
20260510141351 7 308 25.7 45.1 0.00 0.00 0.00 62 812.2
20260510141238 7 312 20.9 32.2 0.00 0.00 0.00 62 812.2
20260510141128 7 315 25.7 37.0 0.00 0.00 0.00 66 812.1
20260510140912 7 312 24.1 37.0 0.00 0.00 0.00 65 811.9
20260510140648 7 320 24.1 37.0 0.00 0.00 0.00 61 812.2
20260510140538 7 312 27.4 46.7 0.00 0.00 0.00 63 812.2
20260510140318 7 311 29.0 51.5 0.00 0.00 0.00 64 812.2
20260510140208 7 302 24.1 35.4 0.00 0.00 0.00 68 812.2
20260510135948 7 297 9.7 17.7 0.00 0.00 0.00 67 812.2
20260510135838 7 339 9.7 19.3 0.00 0.00 0.00 66 812.2
20260510135618 6 323 14.5 30.6 0.00 0.00 0.00 66 812.3
20260510135508 6 308 22.5 30.6 0.00 0.00 0.00 65 812.2
20260510135358 6 301 27.4 33.8 0.00 0.00 0.00 68 812.2
20260510135138 7 309 11.3 16.1 0.00 0.00 0.00 68 812.3
20260510135028 7 313 16.1 25.7 0.00 0.00 0.00 69 812.2
20260510134918 7 331 14.5 22.5 0.00 0.00 0.00 68 812.2
20260510134658 7 314 19.3 33.8 0.00 0.00 0.00 67 812.2
20260510134548 7 318 24.1 33.8 0.00 0.00 0.00 65 812.2
20260510134438 7 302 20.9 32.2 0.00 0.00 0.00 65 812.2
20260510134328 7 305 16.1 30.6 0.00 0.00 0.00 66 812.3
20260510134219 7 338 14.5 22.5 0.00 0.00 0.00 64 812.2
20260510133958 7 282 12.9 22.5 0.00 0.00 0.00 64 812.2
20260510133738 7 293 22.5 30.6 0.00 0.00 0.00 65 812.2
20260510133628 7 309 22.5 30.6 0.00 0.00 0.00 67 812.2
20260510133518 7 310 14.5 20.9 0.00 0.00 0.00 66 812.2
20260510133258 7 300 16.1 32.2 0.00 0.00 0.00 66 812.3
20260510133038 7 312 19.3 32.2 0.00 0.00 0.00 68 812.5
20260510132932 7 299 19.3 30.6 0.00 0.00 0.00 66 812.2
20260510132818 7 310 24.1 30.6 0.00 0.00 0.00 64 812.3
20260510132606 7 312 22.5 30.6 0.00 0.00 0.00 62 812.5
20260510132448 7 312 27.4 35.4 0.00 0.00 0.00 64 812.3
20260510132338 7 309 24.1 37.0 0.00 0.00 0.00 68 812.3
20260510132228 7 306 20.9 29.0 0.00 0.00 0.00 71 812.3
20260510131858 6 312 24.1 33.8 0.00 0.00 0.00 70 812.3
20260510131748 6 308 24.1 38.6 0.00 0.00 0.00 70 812.6
20260510131528 7 319 25.7 33.8 0.00 0.00 0.00 70 812.2
20260510131421 7 315 19.3 32.2 0.00 0.00 0.00 69 812.3
20260510131308 7 311 20.9 35.4 0.00 0.00 0.00 66 812.2
20260510131158 7 301 27.4 40.2 0.00 0.00 0.00 70 812.3
20260510131051 7 305 20.9 30.6 0.00 0.00 0.00 72 812.3
20260510130938 7 301 22.5 33.8 0.00 0.00 0.00 71 812.2
20260510130718 7 298 19.3 30.6 0.00 0.00 0.00 70 812.5
20260510130458 7 318 20.9 33.8 0.00 0.00 0.00 68 812.3
20260510130348 7 317 24.1 32.2 0.00 0.00 0.00 70 812.5
20260510130241 7 316 22.5 30.6 0.00 0.00 0.00 66 812.2
20260510130128 7 311 22.5 30.6 0.00 0.00 0.00 71 812.5
20260510125908 7 310 22.5 27.4 0.00 0.00 0.00 68 812.5
20260510125758 7 314 20.9 38.6 0.00 0.00 0.00 70 812.3
20260510125648 7 296 24.1 37.0 0.00 0.00 0.00 70 812.5
20260510125428 7 259 8.0 19.3 0.00 0.00 0.00 70 812.6
20260510125318 8 313 20.9 32.2 0.00 0.00 0.00 69 812.6
20260510125208 8 311 16.1 25.7 0.00 0.00 0.00 71 812.6
20260510125058 8 321 14.5 24.1 0.00 0.00 0.00 66 812.6
20260510124948 8 303 19.3 24.1 0.00 0.00 0.00 68 812.6
20260510124841 8 306 9.7 16.1 0.00 0.00 0.00 72 812.6
20260510124728 8 250 11.3 20.9 0.00 0.00 0.00 74 812.6
20260510124618 8 285 12.9 24.1 0.00 0.00 0.00 74 812.6
20260510124508 8 261 12.9 22.5 0.00 0.00 0.00 72 812.6
20260510124358 8 250 11.3 17.7 0.00 0.00 0.00 77 812.6
20260510124142 8 281 22.5 33.8 0.00 0.00 0.00 71 812.5
20260510124028 8 294 17.7 35.4 0.00 0.00 0.00 74 812.5
20260510123658 8 275 20.9 35.4 0.00 0.00 0.00 72 812.5
20260510123548 7 268 12.9 20.9 0.00 0.00 0.00 74 812.5
20260510123438 7 309 16.1 33.8 0.00 0.00 0.00 68 812.6
20260510123328 7 302 27.4 35.4 0.00 0.00 0.00 75 812.5
20260510123222 7 294 20.9 25.7 0.00 0.00 0.00 72 812.5
20260510122958 7 312 19.3 25.7 0.00 0.00 0.00 72 812.5
20260510122738 7 282 16.1 29.0 0.00 0.00 0.00 68 812.5
20260510122629 6 289 14.5 25.7 0.00 0.00 0.00 65 812.6
20260510122518 6 286 24.1 37.0 0.00 0.00 0.00 68 812.5
20260510122410 6 291 25.7 33.8 0.00 0.00 0.00 63 812.3
20260510122148 6 290 25.7 33.8 0.00 0.00 0.00 68 812.2
20260510122038 6 284 25.7 35.4 0.00 0.00 0.00 68 812.2
20260510121928 6 287 30.6 41.8 0.00 0.00 0.00 65 812.3
20260510121821 6 286 27.4 37.0 0.00 0.00 0.00 70 812.3
20260510121708 6 291 22.5 33.8 0.00 0.00 0.00 70 812.3
20260510121558 6 279 27.4 38.6 0.00 0.00 0.00 88 812.3
20260510121118 5 306 19.3 24.1 0.00 0.00 0.00 78 812.5
20260510121008 6 306 24.1 29.0 0.00 0.00 0.00 87 812.2
20260510120858 6 294 24.1 30.6 0.00 0.00 0.00 91 812.2
20260510120748 6 296 24.1 27.4 0.00 0.00 0.00 91 812.2
20260510120418 5 283 27.4 40.2 0.00 0.00 0.00 94 812.2
20260510120158 5 281 33.8 40.2 0.00 0.00 0.00 98 812.1
20260510120048 5 285 33.8 48.3 0.00 0.00 0.00 97 812.1
20260510115938 5 277 29.0 41.8 0.00 0.00 0.00 98 812.2
20260510115718 5 274 24.1 33.8 0.00 0.00 0.00 99 812.2
20260510115608 5 284 27.4 33.8 0.00 0.00 0.00 10 812.2
20260510115348 5 279 25.7 37.0 0.00 0.00 0.00 10 812.5
20260510115238 5 289 19.3 29.0 0.00 0.00 0.00 10 812.6
20260510115128 5 281 20.9 29.0 0.00 0.00 0.00 10 812.5
20260510115018 4 294 22.5 33.8 0.00 0.00 0.00 10 812.5
20260510114908 4 294 27.4 37.0 0.00 0.00 0.00 10 812.3
20260510114758 5 295 25.7 30.6 0.00 0.00 0.00 10 812.3
20260510114648 4 301 25.7 32.2 0.00 0.00 0.00 10 812.2
20260510114538 4 302 27.4 33.8 0.00 0.00 0.00 10 812.5
20260510114428 4 297 30.6 35.4 0.00 0.00 0.00 10 812.3
20260510114318 4 303 27.4 35.4 0.00 0.00 0.00 10 812.5
20260510114208 4 306 25.7 32.2 0.00 0.00 0.00 10 812.5
20260510114058 4 281 20.9 30.6 0.00 0.00 0.00 10 812.5
20260510113948 4 302 22.5 33.8 0.00 0.00 0.00 10 812.5
20260510113838 4 300 24.1 29.0 0.00 0.00 0.00 10 812.5
20260510113728 4 293 14.5 17.7 0.00 0.00 0.00 10 812.6
20260510113358 4 332 12.9 20.9 0.00 0.00 0.00 10 812.6
20260510113248 4 324 9.7 14.5 0.00 0.00 0.00 10 812.6
20260510113138 4 306 17.7 24.1 0.00 0.00 0.00 10 812.6
20260510112918 4 298 16.1 19.3 0.00 0.00 0.00 10 812.6
20260510112808 4 292 14.5 17.7 0.00 0.00 0.00 10 812.6
20260510112438 5 268 16.1 27.4 0.00 0.00 0.00 10 812.6
20260510112328 5 261 14.5 22.5 0.00 0.00 0.00 10 812.6
20260510112218 5 303 9.7 14.5 0.00 0.00 0.00 10 812.7
20260510111958 5 274 16.1 30.6 0.00 0.00 0.00 10 812.6
20260510111738 4 315 17.7 30.6 0.00 0.00 0.00 10 812.6
20260510111518 4 295 14.5 29.0 0.00 0.00 0.00 10 812.6
20260510111148 3 314 16.1 29.0 0.00 0.00 0.00 10 812.5
20260510111038 3 315 20.9 30.6 0.00 0.00 0.00 10 812.5
20260510110928 4 301 27.4 37.0 0.00 0.00 0.00 10 812.5
20260510110818 4 292 22.5 40.2 0.00 0.00 0.00 10 812.6
20260510110708 4 287 14.5 24.1 0.00 0.00 0.00 10 812.6
20260510110558 4 309 24.1 37.0 0.00 0.00 0.00 10 812.5
20260510110448 4 290 20.9 30.6 0.00 0.00 0.00 10 812.6
20260510110338 4 297 25.7 32.2 0.00 0.00 0.00 10 812.5
20260510110228 5 283 19.3 30.6 0.00 0.00 0.00 10 812.6
20260510110118 4 281 20.9 35.4 0.00 0.00 0.00 10 812.6
20260510110008 4 283 22.5 30.6 0.00 0.00 0.00 10 812.6
20260510105858 4 288 22.5 30.6 0.00 0.00 0.00 10 812.6
20260510105748 4 276 20.9 32.2 0.00 0.00 0.00 10 812.6
20260510105638 5 279 22.5 35.4 0.00 0.00 0.00 10 812.6
20260510105418 4 291 27.4 35.4 0.00 0.00 0.00 10 812.6
20260510105158 3 313 29.0 37.0 0.00 0.00 0.00 10 812.6
20260510104938 4 303 24.1 38.6 0.00 0.00 0.00 10 812.6
20260510104828 4 318 27.4 41.8 0.00 0.00 0.00 10 812.6
20260510104718 4 305 24.1 37.0 0.00 0.00 0.00 10 812.6
20260510104608 4 311 24.1 38.6 0.00 0.00 0.00 10 812.6
20260510104458 4 306 22.5 37.0 0.00 0.00 0.00 10 812.5
20260510104348 4 298 24.1 32.2 0.00 0.00 0.00 10 812.6
20260510104128 4 308 25.7 35.4 0.00 0.00 0.00 10 812.6
20260510103908 4 294 27.4 38.6 0.00 0.00 0.00 10 812.6
20260510103804 4 298 24.1 38.6 0.00 0.00 0.00 10 812.6
20260510103650 4 307 30.6 45.1 0.00 0.00 0.00 10 812.5
20260510103538 4 301 30.6 53.1 0.00 0.00 0.00 10 812.5
20260510103428 4 309 25.7 38.6 0.00 0.00 0.00 10 812.5
20260510103318 4 310 25.7 37.0 0.00 0.00 0.00 10 812.6
20260510103058 4 314 29.0 40.2 0.00 0.00 0.00 10 812.6
20260510102838 4 312 25.7 46.7 0.00 0.00 0.00 10 812.6
20260510102728 4 303 16.1 24.1 0.00 0.00 0.00 10 812.6
20260510102620 4 318 29.0 43.5 0.00 0.00 0.00 10 812.6
20260510102515 5 307 27.4 45.1 0.00 0.00 0.00 10 812.6
20260510102359 4 310 16.1 25.7 0.00 0.00 0.00 10 812.6
20260510102248 4 317 19.3 33.8 0.00 0.00 0.00 10 812.6
20260510102138 4 319 25.7 41.8 0.00 0.00 0.00 10 812.6
20260510102028 4 316 27.4 43.5 0.00 0.00 0.00 10 812.5
20260510101918 4 313 25.7 37.0 0.00 0.00 0.00 10 812.5
20260510101808 4 318 30.6 45.1 0.00 0.00 0.00 10 812.5
20260510101548 4 314 27.4 38.6 0.00 0.00 0.00 10 812.6
20260510101438 4 302 16.1 35.4 0.00 0.00 0.00 10 812.6
20260510101328 4 302 22.5 46.7 0.00 0.00 0.00 10 812.6
20260510101218 4 315 29.0 40.2 0.00 0.00 0.00 10 812.6
20260510101108 4 272 12.9 20.9 0.00 0.00 0.00 10 812.6
20260510100958 4 301 19.3 32.2 0.00 0.00 0.00 10 812.6
20260510100848 4 318 12.9 25.7 0.00 0.00 0.00 10 812.5
20260510100628 4 314 20.9 29.0 0.00 0.00 0.00 10 812.5
20260510100518 4 315 24.1 38.6 0.00 0.00 0.00 10 812.5
20260510100038 4 308 14.5 27.4 0.00 0.00 0.00 10 812.6
20260510095928 4 319 25.7 40.2 0.00 0.00 0.00 10 812.6
20260510095818 3 314 25.7 43.5 0.00 0.00 0.00 10 812.6
20260510095708 3 307 19.3 27.4 0.00 0.00 0.00 10 812.6
20260510095558 4 316 30.6 51.5 0.00 0.00 0.00 10 812.5
20260510095448 3 311 27.4 38.6 0.00 0.00 0.00 10 812.3
20260510095338 3 316 27.4 45.1 0.00 0.00 0.00 10 812.2
20260510095228 3 315 27.4 48.3 0.00 0.00 0.00 10 812.2
20260510095118 3 319 27.4 48.3 0.00 0.00 0.00 10 812.5
20260510095008 4 322 29.0 48.3 0.00 0.00 0.00 10 812.5
20260510094748 4 319 20.9 41.8 0.00 0.00 0.00 10 812.6
20260510094638 4 320 19.3 43.5 0.00 0.00 0.00 10 812.6
20260510094528 3 349 22.5 40.2 0.00 0.00 0.00 10 812.2
20260510094418 4 351 27.4 43.5 0.00 0.00 0.00 10 812.3
20260510094308 4 346 19.3 37.0 0.00 0.00 0.00 10 812.2
20260510094158 4 349 11.3 19.3 0.00 0.00 0.00 10 812.6
20260510094048 4 0 20.9 27.4 0.00 0.00 0.00 10 812.3
20260510093938 4 3 25.7 40.2 0.00 0.00 0.00 10 812.3
20260510093828 4 354 22.5 33.8 0.00 0.00 0.00 10 812.5
20260510093718 4 345 12.9 27.4 0.00 0.00 0.00 10 812.6
20260510093608 4 350 25.7 37.0 0.00 0.00 0.00 10 812.3
20260510093348 4 352 17.7 33.8 0.00 0.00 0.00 10 812.6
20260510093128 4 354 27.4 40.2 0.00 0.00 0.00 10 812.5
20260510093018 4 343 20.9 29.0 0.00 0.00 0.00 10 812.3
20260510092908 4 330 20.9 35.4 0.00 0.00 0.00 10 812.3
20260510092758 4 331 17.7 33.8 0.00 0.00 0.00 10 812.5
20260510092648 4 318 14.5 37.0 0.00 0.00 0.00 10 812.5
20260510092318 4 350 19.3 38.6 0.00 0.00 0.00 10 812.5
20260510092058 3 1 20.9 30.6 0.00 0.00 0.00 10 812.3
20260510091948 3 349 24.1 30.6 0.00 0.00 0.00 10 812.5
20260510091838 3 326 16.1 25.7 0.00 0.00 0.00 10 812.6
20260510091728 4 332 17.7 30.6 0.00 0.00 0.00 10 812.5
20260510091618 4 341 16.1 33.8 0.00 0.00 0.00 10 812.2
20260510091508 4 322 14.5 27.4 0.00 0.00 0.00 10 812.6
20260510091248 3 350 20.9 32.2 0.00 0.00 0.00 10 812.3
20260510091138 4 326 22.5 37.0 0.00 0.00 0.00 10 812.3
20260510090918 4 355 22.5 33.8 0.00 0.00 0.00 10 812.2
20260510090808 4 357 27.4 38.6 0.00 0.00 0.00 10 812.2
20260510090658 4 347 24.1 38.6 0.00 0.00 0.00 10 812.2
20260510090548 3 341 22.5 40.2 0.00 0.00 0.00 10 812.5
20260510090438 4 346 25.7 37.0 0.00 0.00 0.00 10 812.5
20260510090328 4 342 19.3 48.3 0.00 0.00 0.00 10 812.3
20260510090218 4 355 25.7 35.4 0.00 0.00 0.00 10 812.3
20260510090108 4 353 24.1 37.0 0.00 0.00 0.00 10 812.5
20260510085848 3 348 27.4 43.5 0.00 0.00 0.00 10 812.2
20260510085738 3 350 35.4 51.5 0.00 0.00 0.00 10 812.2
20260510085408 3 356 30.6 40.2 0.00 0.00 0.00 10 812.2
20260510085258 3 357 20.9 32.2 0.00 0.00 0.00 10 812.5
20260510085148 3 345 22.5 40.2 0.00 0.00 0.00 10 812.5
20260510085038 3 350 27.4 45.1 0.00 0.00 0.00 10 812.2
20260510084928 3 341 27.4 41.8 0.00 0.00 0.00 10 812.2
20260510084818 3 345 24.1 43.5 0.00 0.00 0.00 10 812.3
20260510084558 3 350 27.4 43.5 0.00 0.00 0.00 10 812.2
20260510084448 3 356 30.6 46.7 0.00 0.00 0.00 10 812.2
20260510084338 3 340 30.6 43.5 0.00 0.00 0.00 10 812.1
20260510084118 3 353 25.7 35.4 0.00 0.00 0.00 10 812.2
20260510083858 3 346 25.7 43.5 0.00 0.00 0.00 10 812.2
20260510083748 3 331 20.9 38.6 0.00 0.00 0.00 10 812.2
20260510083638 3 348 25.7 48.3 0.00 0.00 0.00 10 812.1
20260510083528 3 324 24.1 40.2 0.00 0.00 0.00 10 812.2
20260510083418 3 312 33.8 51.5 0.00 0.00 0.00 10 812.2
20260510083308 3 321 33.8 57.9 0.00 0.00 0.00 10 812.1
20260510083158 3 317 22.5 46.7 0.00 0.00 0.00 10 812.2
20260510083048 3 345 25.7 40.2 0.00 0.00 0.00 10 812.1
20260510082828 3 0 27.4 40.2 0.00 0.00 0.00 10 812.1
20260510082718 3 339 19.3 33.8 0.00 0.00 0.00 10 812.2
20260510082608 3 356 29.0 41.8 0.00 0.00 0.00 10 812.1
20260510082458 3 342 27.4 38.6 0.00 0.00 0.00 10 812.1
20260510082348 3 336 16.1 27.4 0.00 0.00 0.00 10 812.2
20260510082237 3 347 29.0 43.5 0.00 0.00 0.00 10 811.9
20260510082128 3 337 19.3 33.8 0.00 0.00 0.00 10 812.1
20260510082018 3 354 24.1 37.0 0.00 0.00 0.00 10 811.9
20260510081908 3 353 35.4 45.1 0.00 0.00 0.00 10 811.8
20260510081648 3 340 30.6 45.1 0.00 0.00 0.00 10 811.9
20260510081538 3 356 32.2 40.2 0.00 0.00 0.00 10 811.8
20260510081317 3 2 22.5 40.2 0.00 0.00 0.00 10 812.1
20260510081208 3 6 29.0 40.2 0.00 0.00 0.00 10 811.8
20260510081058 3 0 35.4 49.9 0.00 0.00 0.00 10 811.7
20260510080948 3 355 37.0 49.9 0.00 0.00 0.00 10 811.5
20260510080838 3 353 40.2 49.9 0.00 0.00 0.00 10 811.7
20260510080727 3 352 35.4 53.1 0.00 0.00 0.00 10 811.8
20260510080618 3 0 38.6 51.5 0.00 0.00 0.00 10 811.7
20260510080508 3 348 37.0 49.9 0.00 0.00 0.00 10 811.8
20260510080358 3 352 37.0 48.3 0.00 0.00 0.00 10 811.8
20260510080248 3 353 30.6 46.7 0.00 0.00 0.00 10 811.5
20260510080138 3 346 27.4 48.3 0.00 0.00 0.00 10 811.8
20260510080028 3 344 33.8 48.3 0.00 0.00 0.00 10 811.8
20260510075918 3 330 37.0 62.8 0.00 0.00 0.00 10 811.8
20260510075438 3 343 24.1 37.0 0.00 0.00 0.00 10 812.1
20260510075218 3 337 30.6 59.5 0.00 0.00 0.00 10 811.8
20260510075108 3 334 24.1 51.5 0.00 0.00 0.00 10 812.1
20260510074958 3 346 35.4 51.5 0.00 0.00 0.00 10 811.5
20260510074848 3 347 25.7 45.1 0.00 0.00 0.00 10 811.8
20260510074738 3 350 35.4 46.7 0.00 0.00 0.00 10 811.7
20260510074628 3 350 27.4 48.3 0.00 0.00 0.00 10 811.5
20260510074518 3 354 41.8 56.3 0.00 0.00 0.00 10 811.4
20260510074258 3 0 33.8 49.9 0.00 0.00 0.00 10 811.8
20260510074037 3 0 27.4 46.7 0.00 0.00 0.00 10 811.8
20260510073928 3 356 37.0 51.5 0.00 0.00 0.00 10 811.4
20260510073818 3 0 40.2 51.5 0.00 0.00 0.00 10 811.3
20260510073708 3 346 32.2 49.9 0.00 0.00 0.00 10 811.5
20260510073558 3 358 33.8 46.7 0.00 0.00 0.00 10 811.7
20260510073448 3 4 40.2 53.1 0.00 0.00 0.00 10 811.4
20260510073117 3 0 38.6 49.9 0.00 0.00 0.00 10 811.3
20260510073007 3 2 35.4 51.5 0.00 0.00 0.00 10 811.5
20260510072858 3 1 37.0 48.3 0.00 0.00 0.00 10 811.3
20260510072748 3 358 30.6 40.2 0.00 0.00 0.00 10 811.7
20260510072638 3 356 30.6 38.6 0.00 0.00 0.00 10 811.5
20260510072528 3 4 37.0 49.9 0.00 0.00 0.00 10 811.4
20260510072418 3 6 32.2 40.2 0.00 0.00 0.00 10 811.4
20260510072307 3 3 32.2 41.8 0.00 0.00 0.00 10 811.4
20260510072157 3 343 20.9 30.6 0.00 0.00 0.00 10 811.8
20260510072047 3 2 33.8 45.1 0.00 0.00 0.00 10 811.5
20260510071938 3 4 32.2 41.8 0.00 0.00 0.00 10 811.4
20260510071828 3 355 35.4 49.9 0.00 0.00 0.00 10 811.4
20260510071718 3 3 27.4 41.8 0.00 0.00 0.00 10 811.5
20260510071607 3 5 37.0 49.9 0.00 0.00 0.00 10 811.3
20260510071457 3 9 35.4 45.1 0.00 0.00 0.00 10 811.3
20260510071018 3 0 40.2 56.3 0.00 0.00 0.00 10 811.3
20260510070908 3 355 35.4 49.9 0.00 0.00 0.00 10 811.3
20260510070757 3 0 40.2 51.5 0.00 0.00 0.00 10 811.4
20260510070537 3 1 40.2 53.1 0.00 0.00 0.00 10 811.4
20260510070429 3 353 40.2 54.7 0.00 0.00 0.00 10 811.3
20260510070318 3 355 37.0 48.3 0.00 0.00 0.00 10 811.3
20260510070208 3 358 38.6 53.1 0.00 0.00 0.00 10 811.4
20260510070059 3 0 43.5 51.5 0.00 0.00 0.00 10 811.4
20260510065948 3 0 32.2 43.5 0.00 0.00 0.00 10 811.4
20260510065728 3 352 37.0 45.1 0.00 0.00 0.00 10 811.4
20260510065508 3 0 33.8 43.5 0.00 0.00 0.00 10 811.4
20260510065358 3 0 40.2 49.9 0.00 0.00 0.00 10 811.3
20260510065248 3 2 33.8 54.7 0.00 0.00 0.00 10 811.3
20260510065138 3 356 37.0 51.5 0.00 0.00 0.00 10 811.3
20260510065028 3 355 33.8 41.8 0.00 0.00 0.00 10 811.5
20260510064918 3 351 38.6 54.7 0.00 0.00 0.00 10 810.9
20260510064809 3 344 24.1 33.8 0.00 0.00 0.00 10 811.7
20260510064658 3 355 41.8 54.7 0.00 0.00 0.00 10 811.4
20260510064548 3 358 35.4 46.7 0.00 0.00 0.00 10 811.4
20260510064438 3 1 37.0 48.3 0.00 0.00 0.00 10 811.3
20260510064328 3 0 37.0 46.7 0.00 0.00 0.00 10 811.5
20260510064108 3 352 40.2 49.9 0.00 0.00 0.00 10 811.7
20260510063958 3 354 40.2 54.7 0.00 0.00 0.00 10 811.5
20260510063738 3 353 38.6 49.9 0.00 0.00 0.00 10 811.7
20260510063628 3 3 30.6 40.2 0.00 0.00 0.00 10 811.7
20260510063520 3 356 30.6 40.2 0.00 0.00 0.00 10 811.8
20260510063408 3 355 35.4 45.1 0.00 0.00 0.00 10 811.7
20260510063258 3 352 33.8 43.5 0.00 0.00 0.00 10 811.4
20260510063148 3 358 41.8 49.9 0.00 0.00 0.00 10 811.5
20260510063039 3 350 32.2 41.8 0.00 0.00 0.00 10 811.5
20260510062928 3 353 30.6 41.8 0.00 0.00 0.00 10 811.8
20260510062818 3 353 25.7 35.4 0.00 0.00 0.00 10 811.8
20260510062708 3 0 32.2 40.2 0.00 0.00 0.00 10 811.4
20260510062558 3 357 38.6 49.9 0.00 0.00 0.00 10 811.4
20260510062448 3 352 38.6 48.3 0.00 0.00 0.00 10 811.7
20260510062338 3 345 24.1 46.7 0.00 0.00 0.00 10 811.7
20260510062228 3 345 33.8 48.3 0.00 0.00 0.00 10 811.8
20260510062009 3 356 37.0 51.5 0.00 0.00 0.00 10 811.7
20260510061858 3 353 25.7 37.0 0.00 0.00 0.00 10 811.8
20260510061748 3 352 22.5 32.2 0.00 0.00 0.00 10 811.9
20260510061638 3 357 27.4 35.4 0.00 0.00 0.00 10 811.8
20260510061528 3 357 27.4 35.4 0.00 0.00 0.00 10 811.8
20260510061423 3 356 29.0 37.0 0.00 0.00 0.00 10 811.8
20260510061308 3 1 29.0 38.6 0.00 0.00 0.00 10 811.8
20260510060937 3 7 27.4 37.0 0.00 0.00 0.00 10 811.8
20260510060827 3 4 32.2 38.6 0.00 0.00 0.00 10 811.8
20260510060718 3 356 29.0 35.4 0.00 0.00 0.00 10 811.8
20260510060607 3 356 29.0 40.2 0.00 0.00 0.00 10 811.8
20260510060457 3 355 33.8 41.8 0.00 0.00 0.00 10 811.8
20260510060237 3 4 37.0 46.7 0.00 0.00 0.00 10 811.5
20260510060127 3 2 40.2 53.1 0.00 0.00 0.00 10 811.7
20260510060017 3 1 32.2 48.3 0.00 0.00 0.00 10 811.8
20260510055758 3 358 41.8 53.1 0.00 0.00 0.00 10 811.5
20260510055647 3 355 35.4 64.4 0.00 0.00 0.00 10 811.7
20260510055537 3 9 33.8 43.5 0.00 0.00 0.00 10 811.5
20260510055428 3 356 40.2 56.3 0.00 0.00 0.00 10 811.5
20260510055317 3 356 40.2 51.5 0.00 0.00 0.00 10 811.8
20260510054948 3 9 37.0 51.5 0.00 0.00 0.00 10 811.7
20260510054727 3 0 40.2 46.7 0.00 0.00 0.00 10 811.5
20260510054617 3 0 41.8 53.1 0.00 0.00 0.00 10 811.4
20260510054507 3 358 33.8 43.5 0.00 0.00 0.00 10 811.4
20260510054357 3 349 27.4 41.8 0.00 0.00 0.00 10 811.7
20260510054247 3 354 32.2 51.5 0.00 0.00 0.00 10 811.7
20260510054027 3 353 37.0 46.7 0.00 0.00 0.00 10 811.4
20260510053917 3 3 38.6 51.5 0.00 0.00 0.00 10 811.4
20260510053807 3 355 37.0 59.5 0.00 0.00 0.00 10 811.3
20260510053657 3 358 29.0 41.8 0.00 0.00 0.00 10 811.7
20260510053547 3 354 40.2 57.9 0.00 0.00 0.00 10 811.7
20260510053437 3 355 40.2 56.3 0.00 0.00 0.00 10 811.7
20260510053327 3 339 24.1 43.5 0.00 0.00 0.00 10 811.8
20260510053217 3 352 27.4 46.7 0.00 0.00 0.00 10 811.8
20260510053107 3 347 25.7 43.5 0.00 0.00 0.00 10 811.5
20260510052957 3 356 25.7 45.1 0.00 0.00 0.00 10 811.8
20260510052847 3 356 29.0 53.1 0.00 0.00 0.00 10 811.8
20260510052737 3 347 25.7 45.1 0.00 0.00 0.00 10 811.8
20260510052517 3 356 32.2 56.3 0.00 0.00 0.00 10 811.9
20260510052407 3 333 17.7 37.0 0.00 0.00 0.00 10 811.5
20260510052258 3 337 24.1 48.3 0.00 0.00 0.00 10 811.7
20260510052148 3 351 27.4 51.5 0.00 0.00 0.00 10 811.8
20260510052037 3 5 22.5 43.5 0.00 0.00 0.00 10 811.5
20260510051928 3 358 20.9 33.8 0.00 0.00 0.00 10 811.8
20260510051709 3 0 27.4 35.4 0.00 0.00 0.00 10 811.8
20260510051559 3 7 27.4 40.2 0.00 0.00 0.00 10 811.8
20260510051448 3 356 30.6 41.8 0.00 0.00 0.00 10 811.8
20260510051341 3 357 29.0 37.0 0.00 0.00 0.00 10 811.8
20260510051228 3 5 33.8 43.5 0.00 0.00 0.00 10 811.7
20260510051118 3 4 33.8 45.1 0.00 0.00 0.00 10 811.7
20260510051008 3 5 30.6 37.0 0.00 0.00 0.00 10 811.7
20260510050859 3 1 33.8 43.5 0.00 0.00 0.00 10 811.7
20260510050749 3 0 40.2 48.3 0.00 0.00 0.00 10 811.4
20260510050638 3 8 30.6 43.5 0.00 0.00 0.00 10 811.7
20260510050527 3 349 32.2 41.8 0.00 0.00 0.00 10 811.8
20260510050417 3 349 27.4 37.0 0.00 0.00 0.00 10 811.8
20260510050307 3 4 32.2 40.2 0.00 0.00 0.00 10 811.8
20260510050157 3 354 24.1 29.0 0.00 0.00 0.00 10 811.8
20260510050047 3 0 37.0 43.5 0.00 0.00 0.00 10 811.5
20260510045827 3 351 32.2 38.6 0.00 0.00 0.00 10 811.8
20260510045717 3 2 30.6 37.0 0.00 0.00 0.00 10 811.8
20260510045607 3 0 25.7 37.0 0.00 0.00 0.00 10 811.8
20260510045457 3 2 29.0 35.4 0.00 0.00 0.00 10 811.8
20260510045238 3 3 32.2 40.2 0.00 0.00 0.00 10 811.7
20260510045127 3 11 32.2 38.6 0.00 0.00 0.00 10 811.8
20260510045017 3 8 25.7 32.2 0.00 0.00 0.00 10 811.8
20260510044537 3 12 25.7 41.8 0.00 0.00 0.00 10 811.5
20260510044427 3 18 27.4 40.2 0.00 0.00 0.00 10 811.5
20260510044058 3 20 27.4 38.6 0.00 0.00 0.00 10 811.7
20260510043947 3 20 24.1 37.0 0.00 0.00 0.00 10 811.7
20260510043837 3 25 30.6 43.5 0.00 0.00 0.00 10 811.5
20260510043727 3 18 30.6 43.5 0.00 0.00 0.00 10 811.3
20260510043617 3 16 35.4 46.7 0.00 0.00 0.00 10 811.4
20260510043507 3 31 30.6 43.5 0.00 0.00 0.00 10 811.4
20260510043357 3 15 35.4 49.9 0.00 0.00 0.00 10 811.4
20260510043247 3 15 32.2 46.7 0.00 0.00 0.00 10 811.4
20260510043137 3 19 30.6 48.3 0.00 0.00 0.00 10 811.4
20260510042917 3 22 30.6 48.3 0.00 0.00 0.00 10 811.4
20260510042807 3 18 30.6 41.8 0.00 0.00 0.00 10 811.7
20260510042547 3 0 33.8 40.2 0.00 0.00 0.00 10 811.4
20260510042438 3 8 37.0 43.5 0.00 0.00 0.00 10 811.4
20260510042217 3 9 38.6 48.3 0.00 0.00 0.00 10 811.4
20260510042107 3 8 37.0 45.1 0.00 0.00 0.00 10 811.4
20260510041957 3 4 32.2 43.5 0.00 0.00 0.00 10 811.4
20260510041847 3 10 37.0 45.1 0.00 0.00 0.00 10 811.4
20260510041627 3 10 30.6 38.6 0.00 0.00 0.00 10 811.4
20260510041518 3 5 32.2 41.8 0.00 0.00 0.00 10 811.5
20260510041407 3 6 32.2 41.8 0.00 0.00 0.00 10 811.5
20260510041257 3 0 24.1 30.6 0.00 0.00 0.00 10 811.7
20260510041037 3 352 27.4 35.4 0.00 0.00 0.00 10 811.7
20260510040927 3 357 25.7 33.8 0.00 0.00 0.00 10 811.7
20260510040817 3 356 27.4 33.8 0.00 0.00 0.00 10 811.7
20260510040708 3 0 29.0 33.8 0.00 0.00 0.00 10 811.5
20260510040447 3 355 22.5 30.6 0.00 0.00 0.00 10 811.5
20260510040337 3 353 27.4 33.8 0.00 0.00 0.00 10 811.7
20260510040227 3 0 27.4 33.8 0.00 0.00 0.00 10 811.4
20260510040117 3 0 25.7 33.8 0.00 0.00 0.00 10 811.5
20260510040007 3 353 29.0 33.8 0.00 0.00 0.00 10 811.5
20260510035857 3 358 29.0 33.8 0.00 0.00 0.00 10 811.7
20260510035747 3 352 27.4 33.8 0.00 0.00 0.00 10 811.5
20260510035637 3 352 25.7 33.8 0.00 0.00 0.00 10 811.5
20260510035417 3 356 27.4 33.8 0.00 0.00 0.00 10 811.4
20260510035157 3 4 30.6 38.6 0.00 0.00 0.00 10 811.4
20260510035047 3 3 27.4 35.4 0.00 0.00 0.00 10 811.4
20260510034938 3 1 27.4 33.8 0.00 0.00 0.00 10 811.4
20260510034827 3 6 30.6 38.6 0.00 0.00 0.00 10 811.3
20260510034717 3 10 33.8 40.2 0.00 0.00 0.00 10 811.3
20260510034607 3 13 32.2 43.5 0.00 0.00 0.00 10 811.3
20260510034457 3 13 37.0 49.9 0.00 0.00 0.00 10 811.1
20260510034347 3 15 32.2 40.2 0.00 0.00 0.00 10 811.3
20260510034237 3 11 35.4 43.5 0.00 0.00 0.00 10 811.3
20260510034127 3 9 37.0 45.1 0.00 0.00 0.00 10 811.1
20260510034018 3 11 33.8 45.1 0.00 0.00 0.00 10 811.0
20260510033907 3 8 33.8 41.8 0.00 0.00 0.00 10 811.3
20260510033757 3 9 35.4 41.8 0.00 0.00 0.00 10 811.0
20260510033647 3 12 35.4 43.5 0.00 0.00 0.00 10 811.3
20260510033537 3 6 32.2 43.5 0.00 0.00 0.00 10 811.3
20260510033427 3 6 35.4 43.5 0.00 0.00 0.00 10 811.1
20260510033317 3 8 35.4 41.8 0.00 0.00 0.00 10 811.3
20260510033207 3 8 30.6 37.0 0.00 0.00 0.00 10 811.3
20260510033057 3 8 25.7 37.0 0.00 0.00 0.00 10 811.3
20260510032947 3 10 30.6 38.6 0.00 0.00 0.00 10 811.3
20260510032837 3 9 30.6 37.0 0.00 0.00 0.00 10 811.3
20260510032617 3 7 29.0 35.4 0.00 0.00 0.00 10 811.3
20260510032507 3 14 29.0 33.8 0.00 0.00 0.00 10 811.3
20260510032357 3 13 25.7 35.4 0.00 0.00 0.00 10 811.3
20260510032247 3 10 29.0 33.8 0.00 0.00 0.00 10 811.3
20260510032137 3 7 30.6 38.6 0.00 0.00 0.00 10 811.3
20260510032027 3 10 29.0 38.6 0.00 0.00 0.00 10 811.3
20260510031807 3 16 24.1 35.4 0.00 0.00 0.00 10 811.3
20260510031657 3 35 22.5 32.2 0.00 0.00 0.00 10 811.3
20260510031547 3 31 20.9 33.8 0.00 0.00 0.00 10 811.3
20260510031437 3 34 25.7 33.8 0.00 0.00 0.00 10 811.3
20260510031327 3 39 25.7 35.4 0.00 0.00 0.00 10 811.3
20260510031107 3 35 24.1 35.4 0.00 0.00 0.00 10 811.1
20260510030957 3 34 24.1 37.0 0.00 0.00 0.00 10 811.1
20260510030847 3 21 24.1 32.2 0.00 0.00 0.00 10 811.1
20260510030737 3 28 27.4 35.4 0.00 0.00 0.00 10 811.1
20260510030627 3 24 22.5 38.6 0.00 0.00 0.00 10 811.1
20260510030517 3 25 24.1 33.8 0.00 0.00 0.00 10 811.1
20260510030407 3 31 20.9 35.4 0.00 0.00 0.00 10 811.3
20260510030257 3 24 24.1 38.6 0.00 0.00 0.00 10 811.3
20260510030147 3 19 20.9 35.4 0.00 0.00 0.00 10 811.1
20260510025927 3 13 24.1 32.2 0.00 0.00 0.00 10 811.3
20260510025817 3 8 24.1 33.8 0.00 0.00 0.00 10 811.4
20260510025707 3 11 24.1 30.6 0.00 0.00 0.00 10 811.3
20260510025557 3 14 25.7 33.8 0.00 0.00 0.00 10 811.1
20260510025337 3 15 25.7 33.8 0.00 0.00 0.00 10 811.3
20260510025227 3 8 27.4 37.0 0.00 0.00 0.00 10 811.3
20260510025117 3 14 30.6 38.6 0.00 0.00 0.00 10 811.1
20260510025007 3 18 27.4 38.6 0.00 0.00 0.00 10 811.1
20260510024857 3 14 30.6 37.0 0.00 0.00 0.00 10 811.1
20260510024747 3 15 32.2 41.8 0.00 0.00 0.00 10 810.9
20260510024527 3 13 29.0 35.4 0.00 0.00 0.00 10 811.0
20260510024417 3 12 32.2 40.2 0.00 0.00 0.00 10 810.9
20260510024307 3 11 32.2 37.0 0.00 0.00 0.00 10 811.1
20260510024157 3 6 33.8 41.8 0.00 0.00 0.00 10 811.0
20260510024047 3 11 32.2 40.2 0.00 0.00 0.00 10 811.0
20260510023937 3 0 29.0 35.4 0.00 0.00 0.00 10 811.1
20260510023827 3 2 30.6 38.6 0.00 0.00 0.00 10 811.1
20260510023717 3 1 29.0 37.0 0.00 0.00 0.00 10 811.1
20260510023607 3 357 29.0 37.0 0.00 0.00 0.00 10 811.1
20260510023457 3 1 29.0 37.0 0.00 0.00 0.00 10 811.3
20260510023347 3 356 33.8 45.1 0.00 0.00 0.00 10 811.3
20260510023237 3 350 24.1 32.2 0.00 0.00 0.00 10 811.3
20260510023127 3 353 22.5 35.4 0.00 0.00 0.00 10 811.3
20260510023017 3 0 24.1 40.2 0.00 0.00 0.00 10 811.3
20260510022907 4 355 16.1 29.0 0.00 0.00 0.00 10 811.3
20260510022757 4 357 29.0 43.5 0.00 0.00 0.00 10 811.3
20260510022647 4 356 22.5 37.0 0.00 0.00 0.00 10 811.3
20260510022537 4 351 30.6 40.2 0.00 0.00 0.00 10 811.0
20260510022427 4 348 32.2 41.8 0.00 0.00 0.00 10 811.0
20260510022317 4 353 24.1 35.4 0.00 0.00 0.00 10 811.3
20260510022207 4 358 22.5 30.6 0.00 0.00 0.00 10 811.3
20260510022057 4 350 24.1 32.2 0.00 0.00 0.00 10 811.3
20260510021947 4 352 20.9 30.6 0.00 0.00 0.00 10 811.4
20260510021837 4 347 19.3 30.6 0.00 0.00 0.00 10 811.3
20260510021727 4 356 19.3 33.8 0.00 0.00 0.00 10 811.4
20260510021617 4 345 22.5 40.2 0.00 0.00 0.00 10 811.4
20260510021507 4 337 19.3 32.2 0.00 0.00 0.00 10 811.4
20260510021247 4 351 22.5 30.6 0.00 0.00 0.00 10 811.4
20260510021027 4 355 22.5 32.2 0.00 0.00 0.00 10 811.4
20260510020917 4 339 14.5 25.7 0.00 0.00 0.00 10 811.7
20260510020807 4 341 9.7 19.3 0.00 0.00 0.00 10 811.7
20260510020657 4 343 14.5 22.5 0.00 0.00 0.00 10 811.7
20260510020547 4 335 12.9 24.1 0.00 0.00 0.00 10 811.5
20260510020437 4 320 16.1 25.7 0.00 0.00 0.00 10 811.4
20260510020217 4 324 17.7 29.0 0.00 0.00 0.00 10 811.7
20260510020107 4 295 16.1 27.4 0.00 0.00 0.00 10 811.5
20260510015957 4 342 19.3 29.0 0.00 0.00 0.00 10 811.4
20260510015847 4 357 24.1 30.6 0.00 0.00 0.00 10 811.3
20260510015627 4 342 16.1 27.4 0.00 0.00 0.00 10 811.4
20260510015517 4 336 19.3 37.0 0.00 0.00 0.00 10 811.5
20260510015407 4 350 14.5 30.6 0.00 0.00 0.00 10 811.4
20260510015257 4 335 19.3 30.6 0.00 0.00 0.00 10 811.4
20260510015147 4 348 9.7 20.9 0.00 0.00 0.00 10 811.5
20260510015037 4 337 19.3 32.2 0.00 0.00 0.00 10 811.4
20260510014927 4 338 17.7 32.2 0.00 0.00 0.00 10 811.7
20260510014817 4 341 11.3 24.1 0.00 0.00 0.00 10 811.7
20260510014707 4 351 22.5 30.6 0.00 0.00 0.00 10 811.4
20260510014557 4 345 22.5 40.2 0.00 0.00 0.00 10 811.3
20260510014447 4 319 14.5 29.0 0.00 0.00 0.00 10 811.5
20260510014337 4 338 19.3 30.6 0.00 0.00 0.00 10 811.4
20260510014227 4 340 27.4 38.6 0.00 0.00 0.00 10 811.3
20260510014117 4 349 19.3 30.6 0.00 0.00 0.00 10 811.4
20260510013857 4 354 24.1 41.8 0.00 0.00 0.00 10 811.5
20260510013747 4 351 25.7 33.8 0.00 0.00 0.00 10 811.4
20260510013637 4 354 30.6 37.0 0.00 0.00 0.00 10 811.3
20260510013417 4 9 25.7 30.6 0.00 0.00 0.00 10 811.4
20260510013157 4 355 22.5 29.0 0.00 0.00 0.00 10 811.4
20260510012937 4 349 27.4 35.4 0.00 0.00 0.00 10 811.3
20260510012717 4 352 19.3 35.4 0.00 0.00 0.00 10 811.3
20260510012607 4 332 12.9 20.9 0.00 0.00 0.00 10 811.7
20260510012457 4 356 16.1 22.5 0.00 0.00 0.00 10 811.7
20260510012347 4 357 22.5 30.6 0.00 0.00 0.00 10 811.5
20260510012237 4 350 14.5 29.0 0.00 0.00 0.00 10 811.5
20260510012127 4 319 16.1 29.0 0.00 0.00 0.00 10 811.5
20260510012017 4 338 17.7 29.0 0.00 0.00 0.00 10 811.7
20260510011907 4 344 17.7 27.4 0.00 0.00 0.00 10 811.7
20260510011757 4 343 14.5 25.7 0.00 0.00 0.00 10 811.7
20260510011647 4 311 16.1 27.4 0.00 0.00 0.00 10 811.7
20260510011537 4 343 24.1 33.8 0.00 0.00 0.00 10 811.4
20260510011427 4 351 20.9 33.8 0.00 0.00 0.00 10 811.7
20260510011317 4 352 20.9 32.2 0.00 0.00 0.00 10 811.5
20260510011207 4 345 22.5 30.6 0.00 0.00 0.00 10 811.4
20260510011057 4 358 20.9 30.6 0.00 0.00 0.00 10 811.4
20260510010947 4 347 25.7 33.8 0.00 0.00 0.00 10 811.3
20260510010837 4 337 16.1 20.9 0.00 0.00 0.00 10 811.7
20260510010727 4 2 22.5 33.8 0.00 0.00 0.00 10 811.4
20260510010617 4 349 22.5 35.4 0.00 0.00 0.00 10 811.7
20260510010507 4 330 16.1 30.6 0.00 0.00 0.00 10 811.7
20260510010357 4 346 24.1 38.6 0.00 0.00 0.00 10 811.7
20260510010137 4 344 25.7 38.6 0.00 0.00 0.00 10 811.4
20260510010027 4 288 16.1 29.0 0.00 0.00 0.00 10 811.7
20260510005917 4 0 27.4 37.0 0.00 0.00 0.00 10 811.3
20260510005657 4 345 20.9 37.0 0.00 0.00 0.00 10 811.5
20260510005546 4 331 12.9 27.4 0.00 0.00 0.00 10 811.7
20260510005437 4 337 14.5 29.0 0.00 0.00 0.00 10 811.7
20260510005327 4 324 20.9 35.4 0.00 0.00 0.00 10 811.7
20260510005217 4 321 19.3 37.0 0.00 0.00 0.00 10 811.7
20260510005107 4 347 16.1 32.2 0.00 0.00 0.00 10 811.7
20260510004847 4 358 19.3 27.4 0.00 0.00 0.00 10 811.4
20260510004737 4 2 19.3 33.8 0.00 0.00 0.00 10 811.4
20260510004626 4 310 17.7 30.6 0.00 0.00 0.00 10 811.5
20260510004517 4 331 17.7 32.2 0.00 0.00 0.00 10 811.7
20260510004407 4 327 14.5 25.7 0.00 0.00 0.00 10 811.4
20260510004147 4 336 17.7 38.6 0.00 0.00 0.00 10 811.7
20260510004037 4 350 17.7 33.8 0.00 0.00 0.00 10 811.7
20260510003926 4 335 24.1 30.6 0.00 0.00 0.00 10 811.4
20260510003706 4 342 32.2 41.8 0.00 0.00 0.00 10 811.3
20260510003447 4 355 30.6 40.2 0.00 0.00 0.00 10 811.3
20260510003337 4 353 27.4 37.0 0.00 0.00 0.00 10 811.3
20260510003227 4 3 25.7 35.4 0.00 0.00 0.00 10 811.4
20260510003117 4 9 27.4 33.8 0.00 0.00 0.00 10 811.3
20260510003006 4 355 33.8 46.7 0.00 0.00 0.00 10 811.3
20260510002856 4 352 30.6 38.6 0.00 0.00 0.00 10 811.4
20260510002746 4 353 29.0 43.5 0.00 0.00 0.00 10 811.4
20260510002637 4 353 27.4 33.8 0.00 0.00 0.00 10 811.4
20260510002527 4 352 30.6 43.5 0.00 0.00 0.00 10 811.4
20260510002307 4 357 29.0 37.0 0.00 0.00 0.00 10 811.3
20260510002156 4 358 29.0 37.0 0.00 0.00 0.00 10 811.3
20260510002047 4 348 29.0 40.2 0.00 0.00 0.00 10 811.3
20260510001936 4 348 25.7 32.2 0.00 0.00 0.00 10 811.7
20260510001826 4 2 27.4 35.4 0.00 0.00 0.00 10 811.4
20260510001717 4 357 27.4 35.4 0.00 0.00 0.00 10 811.4
20260510001607 4 354 25.7 33.8 0.00 0.00 0.00 10 811.5
20260510001457 4 345 27.4 41.8 0.00 0.00 0.00 10 811.5
20260510001347 4 353 27.4 40.2 0.00 0.00 0.00 10 811.5
20260510001126 4 358 22.5 33.8 0.00 0.00 0.00 10 811.7
20260510001016 4 0 17.7 29.0 0.00 0.00 0.00 10 811.4
20260510000906 4 352 19.3 25.7 0.00 0.00 0.00 10 811.7
20260510000756 4 355 11.3 20.9 0.00 0.00 0.00 10 811.7
20260510000537 4 348 19.3 29.0 0.00 0.00 0.00 10 811.7
20260510000427 4 339 24.1 37.0 0.00 0.00 0.00 10 811.4
20260510000318 4 344 16.1 27.4 0.00 0.00 0.00 10 811.5
20260510000057 4 323 27.4 40.2 0.00 0.00 0.00 10 811.7
20260509235727 4 348 9.7 29.0 0.00 0.00 0.00 10 811.8
20260509235617 4 339 12.9 29.0 0.00 0.00 0.00 10 811.8
20260509235356 4 324 17.7 32.2 0.00 0.00 0.00 10 811.8
20260509235246 4 323 24.1 41.8 0.00 0.00 0.00 10 811.7
20260509235137 4 334 16.1 35.4 0.00 0.00 0.00 10 811.7
20260509235027 4 311 14.5 27.4 0.00 0.00 0.00 10 811.8
20260509234916 4 312 14.5 24.1 0.00 0.00 0.00 10 811.8
20260509234807 4 314 14.5 29.0 0.00 0.00 0.00 10 811.8
20260509234656 4 316 19.3 30.6 0.00 0.00 0.00 10 811.8
20260509234546 4 319 17.7 29.0 0.00 0.00 0.00 10 811.8
20260509234437 4 309 22.5 35.4 0.00 0.00 0.00 10 811.7
20260509234327 4 330 19.3 29.0 0.00 0.00 0.00 10 811.7
20260509234107 4 314 14.5 30.6 0.00 0.00 0.00 10 811.8
20260509233957 4 326 22.5 30.6 0.00 0.00 0.00 10 811.7
20260509233847 4 325 19.3 35.4 0.00 0.00 0.00 10 811.8
20260509233736 4 319 20.9 32.2 0.00 0.00 0.00 10 811.8
20260509233626 4 336 16.1 24.1 0.00 0.00 0.00 10 811.8
20260509233517 4 341 24.1 32.2 0.00 0.00 0.00 10 811.8
20260509233406 4 346 19.3 32.2 0.00 0.00 0.00 10 811.7
20260509233256 4 341 17.7 27.4 0.00 0.00 0.00 10 811.8
20260509233147 4 320 20.9 33.8 0.00 0.00 0.00 10 811.8
20260509233037 4 311 16.1 30.6 0.00 0.00 0.00 10 811.8
20260509232926 4 327 17.7 30.6 0.00 0.00 0.00 10 811.8
20260509232816 4 341 17.7 32.2 0.00 0.00 0.00 10 811.8
20260509232707 4 340 12.9 22.5 0.00 0.00 0.00 10 811.9
20260509232557 4 334 16.1 29.0 0.00 0.00 0.00 10 811.8
20260509232446 4 340 19.3 24.1 0.00 0.00 0.00 10 811.8
20260509232337 4 350 19.3 27.4 0.00 0.00 0.00 10 811.8
20260509232226 4 353 17.7 27.4 0.00 0.00 0.00 10 812.1
20260509232116 4 337 12.9 19.3 0.00 0.00 0.00 10 812.1
20260509232006 4 326 12.9 24.1 0.00 0.00 0.00 10 811.9
20260509231856 4 331 12.9 29.0 0.00 0.00 0.00 10 811.8
20260509231746 4 325 17.7 32.2 0.00 0.00 0.00 10 811.8
20260509231637 4 314 20.9 38.6 0.00 0.00 0.00 10 811.9
20260509231527 4 333 17.7 35.4 0.00 0.00 0.00 10 812.1
20260509231417 4 335 19.3 30.6 0.00 0.00 0.00 10 811.9
20260509231306 4 321 22.5 32.2 0.00 0.00 0.00 10 812.1
20260509231156 4 322 27.4 37.0 0.00 0.00 0.00 10 811.9
20260509231046 4 328 17.7 32.2 0.00 0.00 0.00 10 812.1
20260509230937 4 319 20.9 35.4 0.00 0.00 0.00 10 812.1
20260509230826 4 312 20.9 32.2 0.00 0.00 0.00 10 812.1
20260509230717 4 319 17.7 27.4 0.00 0.00 0.00 10 812.1
20260509230607 4 313 25.7 37.0 0.00 0.00 0.00 10 811.8
20260509230346 4 310 19.3 37.0 0.00 0.00 0.00 10 812.2
20260509230237 4 305 22.5 32.2 0.00 0.00 0.00 10 812.1
20260509230126 4 315 25.7 33.8 0.00 0.00 0.00 10 811.9
20260509230017 4 310 27.4 37.0 0.00 0.00 0.00 10 812.1
20260509225906 5 318 20.9 27.4 0.00 0.00 0.00 10 812.1
20260509225757 4 326 24.1 37.0 0.00 0.00 0.00 10 812.1
20260509225647 5 310 22.5 33.8 0.00 0.00 0.00 10 812.1
20260509225536 5 313 17.7 37.0 0.00 0.00 0.00 10 812.1
20260509225426 5 315 22.5 33.8 0.00 0.00 0.00 10 812.2
20260509225057 5 314 16.1 27.4 0.00 0.00 0.00 10 812.2
20260509224947 5 312 24.1 35.4 0.00 0.00 0.00 10 812.1
20260509224836 5 316 20.9 37.0 0.00 0.00 0.00 10 812.2
20260509224616 5 311 19.3 27.4 0.00 0.00 0.00 10 812.1
20260509224507 5 304 24.1 40.2 0.00 0.00 0.00 10 812.1
20260509224247 5 310 19.3 25.7 0.00 0.00 0.00 10 812.2
20260509224137 5 309 17.7 24.1 0.00 0.00 0.00 10 812.2
20260509224026 5 308 19.3 27.4 0.00 0.00 0.00 10 812.2
20260509223917 5 307 20.9 30.6 0.00 0.00 0.00 10 812.1
20260509223656 5 320 22.5 33.8 0.00 0.00 0.00 10 812.1
20260509223546 5 311 22.5 30.6 0.00 0.00 0.00 10 812.2
20260509223326 5 313 16.1 22.5 0.00 0.00 0.00 10 812.2
20260509223217 5 310 12.9 24.1 0.00 0.00 0.00 10 812.2
20260509223106 5 311 9.7 16.1 0.00 0.00 0.00 10 812.2
20260509222956 5 307 14.5 19.3 0.00 0.00 0.00 10 812.2
20260509222846 5 308 19.3 27.4 0.00 0.00 0.00 10 812.2
20260509222736 5 319 17.7 27.4 0.00 0.00 0.00 10 812.2
20260509222517 5 317 14.5 24.1 0.00 0.00 0.00 10 812.2
20260509222407 5 322 16.1 24.1 0.00 0.00 0.00 10 812.2
20260509222146 5 342 12.9 19.3 0.00 0.00 0.00 10 812.2
20260509222036 5 316 19.3 27.4 0.00 0.00 0.00 10 812.2
20260509221926 5 342 6.4 19.3 0.00 0.00 0.00 10 812.3
20260509221816 5 330 11.3 22.5 0.00 0.00 0.00 10 812.2
20260509221706 5 309 16.1 22.5 0.00 0.00 0.00 10 812.2
20260509221557 5 341 12.9 27.4 0.00 0.00 0.00 10 812.2
20260509221446 5 336 14.5 27.4 0.00 0.00 0.00 10 812.2
20260509221226 5 330 12.9 22.5 0.00 0.00 0.00 10 812.2
20260509221116 5 330 14.5 27.4 0.00 0.00 0.00 10 812.2
20260509221006 5 336 11.3 20.9 0.00 0.00 0.00 10 812.2
20260509220856 5 310 19.3 27.4 0.00 0.00 0.00 10 812.2
20260509220747 5 337 24.1 30.6 0.00 0.00 0.00 10 812.2
20260509220637 5 294 12.9 33.8 0.00 0.00 0.00 10 812.2
20260509220416 5 310 12.9 24.1 0.00 0.00 0.00 10 812.2
20260509220306 5 338 11.3 24.1 0.00 0.00 0.00 10 812.2
20260509220156 5 335 19.3 29.0 0.00 0.00 0.00 10 812.2
20260509220046 5 301 17.7 32.2 0.00 0.00 0.00 10 812.2
20260509215937 5 311 14.5 27.4 0.00 0.00 0.00 10 812.3
20260509215826 5 321 17.7 29.0 0.00 0.00 0.00 10 812.2
20260509215716 5 331 14.5 29.0 0.00 0.00 0.00 10 812.2
20260509215606 5 325 12.9 22.5 0.00 0.00 0.00 10 812.3
20260509215456 5 315 11.3 20.9 0.00 0.00 0.00 10 812.3
20260509215346 5 349 17.7 25.7 0.00 0.00 0.00 10 812.2
20260509215236 5 320 19.3 29.0 0.00 0.00 0.00 10 812.2
20260509215127 5 336 17.7 27.4 0.00 0.00 0.00 10 812.2
20260509214906 5 336 20.9 33.8 0.00 0.00 0.00 10 812.2
20260509214536 5 342 16.1 25.7 0.00 0.00 0.00 10 812.2
20260509214426 5 310 12.9 33.8 0.00 0.00 0.00 10 812.2
20260509214206 5 328 24.1 38.6 0.00 0.00 0.00 10 812.2
20260509214056 5 326 19.3 32.2 0.00 0.00 0.00 10 812.3
20260509213946 5 331 17.7 24.1 0.00 0.00 0.00 10 812.2
20260509213836 5 329 16.1 22.5 0.00 0.00 0.00 10 812.3
20260509213726 5 332 19.3 25.7 0.00 0.00 0.00 10 812.3
20260509213616 5 333 16.1 24.1 0.00 0.00 0.00 10 812.3
20260509213506 5 337 17.7 24.1 0.00 0.00 0.00 10 812.2
20260509213246 5 335 11.3 17.7 0.00 0.00 0.00 10 812.3
20260509213136 5 352 16.1 20.9 0.00 0.00 0.00 10 812.2
20260509212916 5 355 17.7 24.1 0.00 0.00 0.00 10 812.3
20260509212806 5 2 16.1 19.3 0.00 0.00 0.00 10 812.3
20260509212656 5 7 16.1 19.3 0.00 0.00 0.00 10 812.3
20260509212546 5 8 16.1 19.3 0.00 0.00 0.00 10 812.2
20260509212437 5 9 16.1 19.3 0.00 0.00 0.00 10 812.2
20260509212327 5 12 17.7 20.9 0.00 0.00 0.00 10 812.3
20260509212216 5 8 14.5 19.3 0.00 0.00 0.00 10 812.3
20260509212106 5 3 16.1 22.5 0.00 0.00 0.00 10 812.2
20260509211956 5 6 14.5 19.3 0.00 0.00 0.00 10 812.3
20260509211846 5 29 12.9 17.7 0.00 0.00 0.00 10 812.3
20260509211736 5 18 12.9 16.1 0.00 0.00 0.00 10 812.5
20260509211626 5 16 12.9 17.7 0.00 0.00 0.00 10 812.3
20260509211517 5 13 14.5 19.3 0.00 0.00 0.00 10 812.3
20260509211407 5 14 16.1 19.3 0.00 0.00 0.00 10 812.3
20260509211146 5 19 14.5 19.3 0.00 0.00 0.00 10 812.3
20260509211036 5 16 16.1 20.9 0.00 0.00 0.00 10 812.3
20260509210926 5 21 16.1 19.3 0.00 0.00 0.00 10 812.3
20260509210706 5 14 16.1 19.3 0.00 0.00 0.00 10 812.5
20260509210557 5 17 16.1 22.5 0.00 0.00 0.00 10 812.3
20260509210226 5 22 14.5 19.3 0.00 0.00 0.00 10 812.5
20260509210116 5 18 16.1 20.9 0.00 0.00 0.00 10 812.5
20260509210007 5 18 17.7 20.9 0.00 0.00 0.00 10 812.5
20260509205857 5 21 16.1 20.9 0.00 0.00 0.00 10 812.5
20260509205746 4 20 16.1 20.9 0.00 0.00 0.00 10 812.5
20260509205636 4 21 16.1 19.3 0.00 0.00 0.00 10 812.3
20260509205526 4 18 17.7 20.9 0.00 0.00 0.00 10 812.3
20260509205416 4 19 17.7 22.5 0.00 0.00 0.00 10 812.3
20260509205307 4 19 19.3 24.1 0.00 0.00 0.00 10 812.3
20260509205156 4 20 17.7 20.9 0.00 0.00 0.00 10 812.3
20260509205046 4 21 16.1 20.9 0.00 0.00 0.00 10 812.3
20260509204936 4 24 16.1 20.9 0.00 0.00 0.00 10 812.3
20260509204716 4 25 17.7 20.9 0.00 0.00 0.00 10 812.5
20260509204607 4 28 16.1 20.9 0.00 0.00 0.00 10 812.5
20260509204457 4 27 16.1 19.3 0.00 0.00 0.00 10 812.5
20260509204347 4 27 16.1 19.3 0.00 0.00 0.00 10 812.5
20260509204127 4 30 16.1 19.3 0.00 0.00 0.00 10 812.5
20260509203756 4 32 14.5 17.7 0.00 0.00 0.00 10 812.5
20260509203646 4 33 16.1 19.3 0.00 0.00 0.00 10 812.5
20260509203537 4 33 16.1 19.3 0.00 0.00 0.00 10 812.5
20260509203428 4 34 16.1 17.7 0.00 0.00 0.00 10 812.6
20260509203318 4 34 16.1 17.7 0.00 0.00 0.00 10 812.5
20260509203207 4 35 16.1 17.7 0.00 0.00 0.00 10 812.5
20260509203057 4 36 17.7 19.3 0.00 0.00 0.00 10 812.5
20260509202947 4 37 16.1 17.7 0.00 0.00 0.00 10 812.5
20260509202728 4 38 14.5 16.1 0.00 0.00 0.00 10 812.6
20260509202617 4 39 14.5 17.7 0.00 0.00 0.00 10 812.5
20260509202509 4 39 16.1 16.1 0.00 0.00 0.00 10 812.5
20260509202357 4 42 16.1 16.1 0.00 0.00 0.00 10 812.5
20260509202248 4 44 16.1 16.1 0.00 0.00 0.00 10 812.5
20260509202137 4 44 16.1 16.1 0.00 0.00 0.00 10 812.5
20260509202027 4 45 16.1 16.1 0.00 0.00 0.00 10 812.6
20260509201917 4 45 16.1 16.1 0.00 0.00 0.00 10 812.5
20260509201807 4 43 16.1 16.1 0.00 0.00 0.00 10 812.6
20260509201657 4 42 16.1 16.1 0.00 0.00 0.00 10 812.5
20260509201546 4 42 16.1 16.1 0.00 0.00 0.00 10 812.6
20260509201436 4 43 16.1 16.1 0.00 0.00 0.00 10 812.5
20260509201326 4 45 16.1 16.1 0.00 0.00 0.00 10 812.6
20260509201216 4 46 16.1 16.1 0.00 0.00 0.00 10 812.6
20260509201107 4 47 16.1 16.1 0.00 0.00 0.00 10 812.6
20260509200957 4 48 16.1 17.7 0.00 0.00 0.00 10 812.6
20260509200847 4 48 16.1 16.1 0.00 0.00 0.00 10 812.6